Flag Weather past 2 weeks in Bissau, Guinea-Bissau

Now
72 °F

Clear.


Feels Like: 69 °F
Forecast: 73 / 91 °F
Wind: 9 mph from North

Location: Ziguinchor Airport

Current Time: Nov 29, 2014 at 5:39:36 AM

Latest Report: Nov 29, 2014 at 5:00 AM


Visibility: 10 mi

Pressure: 29.89 "Hg

Humidity: 88%

Dew point: 68 °F

Location of BissauLocation

Historic Weather in Bissau — Graph

°F

Bissau temperature yesterday

Maximum temperature yesterday: 93 °F (at 10:00 PM)
Minimum temperature yesterday: 72 °F (at 6:00 AM)
Average temperature yesterday: 78 °F

Past Weeks' High & Low Weather Summary

 TemperatureHumidityPressure
High100 °F (Nov 26, 3:00 PM)100% (Nov 14, 6:00 AM)30.04 "Hg (Nov 14, 6:00 AM)
Low70 °F (Nov 14, 8:00 AM)29% (Nov 26, 3:00 PM)29.80 "Hg (Nov 15, 4:00 PM)
Average80 °F75%29.91 "Hg
* Reported Nov 14 4:00 AM — Nov 29 4:00 AM, Bissau, Weather by CustomWeather, © 2014

Note: Actual official high and low records may vary slightly from our data, if they occured in-between our weather recording intervals... More about our weather records

Advertising

Bissau weather history for previous 24 hours

 ConditionsComfort  
Time TempWeatherWind HumidityBarometerVisibility
4:00 AM
Nov 29
72 °FClear.7 mph88%29.89 "Hg10 mi
3:00 AM72 °FClear.5 mph83%29.92 "Hg10 mi
2:00 AM70 °FClear.2 mph88%29.92 "Hg10 mi
1:00 AM72 °FClear.2 mph88%29.92 "Hg10 mi
12:00 AM72 °FClear.2 mph88%29.95 "Hg10 mi
11:00 PM
Nov 28
73 °FClear.2 mph83%29.95 "Hg10 mi
10:00 PM93 °FClear.2 mph44%29.95 "Hg10 mi
9:00 PM75 °FClear.2 mph78%29.92 "Hg10 mi
8:00 PM77 °FClear.2 mph83%29.92 "Hg10 mi
7:00 PM79 °FClear.2 mph74%29.89 "Hg10 mi
6:00 PM81 °FSunny.2 mph70%29.89 "Hg10 mi
5:00 PM84 °FSunny.2 mph55%29.89 "Hg10 mi
4:00 PM84 °FSunny.5 mph51%29.89 "Hg10 mi
3:00 PM84 °FSunny.5 mph51%29.89 "Hg10 mi
2:00 PM84 °FSunny.5 mph43%29.92 "Hg10 mi
1:00 PM82 °FSunny.7 mph45%29.92 "Hg10 mi
12:00 PM81 °FSunny.9 mph48%29.95 "Hg10 mi
10:00 AM77 °FSunny.9 mph57%29.98 "Hg10 mi
9:00 AM73 °FSunny.7 mph65%29.95 "Hg10 mi
8:00 AM72 °FSunny.5 mph78%29.95 "Hg10 mi
7:00 AM72 °FClear.5 mph94%29.92 "Hg10 mi
6:00 AM72 °FClear.5 mph83%29.92 "Hg10 mi
Weather by CustomWeather, © 2014

See weather overviewHow to use our weather pages